Flag for U.S.A. Weather past 2 weeks in Marengo, Indiana, U.S.A.

Now
89 °F

Scattered clouds.


Feels Like: 96 °F
Forecast: 72 / 90 °F
Wind: 10 mph from West

Location: Bowling Green-Warren County Regional Airport

Current Time: Aug 21, 2014 at 2:43:55 PM

Latest Report: Aug 21, 2014 at 1:53 PM


Visibility: 10 mi

Pressure: 30.09 "Hg

Humidity: 57%

Dew point: 72 °F

Location of MarengoLocation

Historic Weather in Marengo — Graph

°F

Marengo temperature yesterday

Maximum temperature yesterday: 93 °F (at 3:53 PM)
Minimum temperature yesterday: 71 °F (at 11:53 PM)
Average temperature yesterday: 78 °F

Past Weeks' High & Low Weather Summary

 TemperatureHumidityPressure
High93 °F (Aug 7, 2:53 PM)97% (Aug 10, 1:53 AM)30.10 "Hg (Aug 10, 1:53 AM)
Low60 °F (Aug 14, 4:53 AM)34% (Aug 6, 3:53 PM)29.80 "Hg (Aug 19, 6:53 PM)
Average76 °F74%29.95 "Hg
* Reported Aug 6 12:53 PM — Aug 21 12:53 PM, Marengo, Weather by CustomWeather, © 2014

Note: Actual official high and low records may vary slightly from our data, if they occured in-between our weather recording intervals... More about our weather records

Advertising

Marengo weather history for previous 24 hours

 ConditionsComfort  
Time TempWeatherWind HumidityBarometerVisibility
12:53 PM
Aug 21
89 °FPassing clouds.9 mph57%30.10 "Hg10 mi
11:53 AM86 °FSunny.12 mph65%30.10 "Hg10 mi
10:53 AM83 °FSunny.9 mph72%30.10 "Hg10 mi
9:53 AM79 °FSunny.8 mph79%30.09 "Hg10 mi
8:53 AM73 °FSunny.7 mph88%30.08 "Hg10 mi
7:53 AM70 °FClear.5 mph90%30.06 "Hg10 mi
6:53 AM68 °FClear.No wind93%30.06 "Hg10 mi
5:53 AM69 °FClear.No wind90%30.06 "Hg10 mi
4:53 AM70 °FClear.5 mph90%30.05 "Hg10 mi
3:53 AM69 °FClear.No wind93%30.04 "Hg10 mi
2:53 AM70 °FClear.5 mph90%30.05 "Hg10 mi
1:53 AM71 °FClear.7 mph90%30.05 "Hg10 mi
12:53 AM71 °FClear.6 mph90%30.05 "Hg10 mi
11:53 PM
Aug 20
71 °FClear.5 mph90%30.06 "Hg10 mi
10:53 PM72 °FPassing clouds.7 mph91%30.07 "Hg10 mi
9:53 PM72 °FClear.3 mph91%30.04 "Hg10 mi
8:53 PM73 °FSunny.No wind88%30.03 "Hg10 mi
7:53 PM73 °FSunny.5 mph88%30.02 "Hg10 mi
6:53 PM73 °FPassing clouds.9 mph88%30.01 "Hg10 mi
5:58 PM73 °FThunderstorms. Broken clouds.14 mph84%29.98 "Hg3 mi
5:01 PM74 °FStrong thunderstorms. Partly sunny.N/A74%30.02 "Hg1 mi
3:53 PM93 °FPassing clouds.5 mph54%29.93 "Hg10 mi
2:53 PM92 °FSunny.6 mph58%29.95 "Hg10 mi
Weather by CustomWeather, © 2014

See weather overviewHow to use our weather pages